Time,TemperatureF,DewpointF,PressureIn,WindDirection,WindDirectionDegrees,WindSpeedMPH,WindSpeedGustMPH,Humidity,HourlyPrecipIn,Conditions,Clouds,dailyrainin,SoftwareType,DateUTC
2015-07-05 00:03:00,67.0,61.0,-100.00,South,170,2.0,6.0,82,-99.99,,,-99.99,,2015-07-05 05:03:00,
2015-07-05 00:13:00,67.0,62.0,-100.00,South,180,3.0,6.0,83,-99.99,,,-99.99,,2015-07-05 05:13:00,
2015-07-05 00:23:00,66.0,61.0,-100.00,SSE,150,4.0,7.0,84,-99.99,,,-99.99,,2015-07-05 05:23:00,
2015-07-05 00:33:00,66.0,61.0,-100.00,South,175,3.0,6.0,84,-99.99,,,-99.99,,2015-07-05 05:33:00,
2015-07-05 00:43:00,66.0,61.0,-100.00,South,175,3.0,6.0,84,-99.99,,,-99.99,,2015-07-05 05:43:00,
2015-07-05 00:53:00,66.0,61.0,-100.00,South,175,3.0,6.0,84,-99.99,,,-99.99,,2015-07-05 05:53:00,
2015-07-05 01:03:00,65.0,61.0,-100.00,South,185,4.0,8.0,86,-99.99,,,-99.99,,2015-07-05 06:03:00,
2015-07-05 01:13:00,65.0,61.0,-100.00,South,180,4.0,7.0,87,-99.99,,,-99.99,,2015-07-05 06:13:00,
2015-07-05 01:23:00,65.0,62.0,-100.00,South,180,5.0,7.0,87,-99.99,,,-99.99,,2015-07-05 06:23:00,
2015-07-05 01:33:00,65.0,62.0,-100.00,South,170,3.0,7.0,87,-99.99,,,-99.99,,2015-07-05 06:33:00,
2015-07-05 01:44:00,65.0,61.0,-100.00,South,175,3.0,5.0,87,-99.99,,,-99.99,,2015-07-05 06:44:00,
2015-07-05 02:03:00,65.0,61.0,-100.00,SSW,195,6.0,8.0,87,-99.99,,,-99.99,,2015-07-05 07:03:00,
2015-07-05 02:12:00,65.0,61.0,-100.00,South,190,7.0,9.0,87,-99.99,,,-99.99,,2015-07-05 07:12:00,
2015-07-05 02:23:00,65.0,61.0,-100.00,South,190,7.0,9.0,87,-99.99,,,-99.99,,2015-07-05 07:23:00,
2015-07-05 02:33:00,64.0,60.0,-100.00,SSW,195,6.0,9.0,87,-99.99,,,-99.99,,2015-07-05 07:33:00,
2015-07-05 02:43:00,64.0,60.0,-100.00,SSW,195,4.0,9.0,87,-99.99,,,-99.99,,2015-07-05 07:43:00,
2015-07-05 02:53:00,64.0,60.0,-100.00,South,170,4.0,7.0,87,-99.99,,,-99.99,,2015-07-05 07:53:00,
2015-07-05 03:03:00,64.0,60.0,-100.00,South,175,4.0,6.0,87,-99.99,,,-99.99,,2015-07-05 08:03:00,
2015-07-05 03:13:00,64.0,60.0,-100.00,South,190,4.0,6.0,87,-99.99,,,-99.99,,2015-07-05 08:13:00,
2015-07-05 03:23:00,64.0,60.0,-100.00,South,175,4.0,6.0,87,-99.99,,,-99.99,,2015-07-05 08:23:00,
2015-07-05 03:33:00,64.0,60.0,-100.00,SSE,165,3.0,7.0,87,-99.99,,,-99.99,,2015-07-05 08:33:00,
2015-07-05 03:43:00,64.0,61.0,-100.00,South,170,3.0,7.0,87,-99.99,,,-99.99,,2015-07-05 08:43:00,
2015-07-05 03:53:00,64.0,60.0,-100.00,SSE,165,5.0,7.0,87,-99.99,,,-99.99,,2015-07-05 08:53:00,
2015-07-05 04:03:00,64.0,61.0,-100.00,SSE,165,3.0,6.0,88,-99.99,,,-99.99,,2015-07-05 09:03:00,
2015-07-05 04:13:00,64.0,60.0,-100.00,SSE,155,3.0,6.0,88,-99.99,,,-99.99,,2015-07-05 09:13:00,
2015-07-05 04:23:00,63.0,60.0,-100.00,SSE,165,3.0,6.0,89,-99.99,,,-99.99,,2015-07-05 09:23:00,
2015-07-05 04:34:00,63.0,60.0,-100.00,SSE,155,5.0,7.0,89,-99.99,,,-99.99,,2015-07-05 09:34:00,
2015-07-05 04:43:00,63.0,61.0,-100.00,SSE,165,3.0,6.0,90,-99.99,,,-99.99,,2015-07-05 09:43:00,
2015-07-05 04:53:00,64.0,61.0,-100.00,South,180,4.0,6.0,90,-99.99,,,-99.99,,2015-07-05 09:53:00,
2015-07-05 05:03:00,64.0,61.0,-100.00,South,180,4.0,7.0,90,-99.99,,,-99.99,,2015-07-05 10:03:00,
2015-07-05 05:12:00,63.0,61.0,-100.00,South,180,4.0,7.0,90,-99.99,,,-99.99,,2015-07-05 10:12:00,
2015-07-05 05:23:00,64.0,61.0,-100.00,South,180,6.0,9.0,91,-99.99,,,-99.99,,2015-07-05 10:23:00,
2015-07-05 05:33:00,64.0,61.0,-100.00,South,180,6.0,9.0,91,-99.99,,,-99.99,,2015-07-05 10:33:00,
2015-07-05 05:43:00,64.0,61.0,-100.00,South,180,6.0,9.0,91,-99.99,,,-99.99,,2015-07-05 10:43:00,
2015-07-05 05:53:00,64.0,61.0,-100.00,South,175,6.0,9.0,91,-99.99,,,-99.99,,2015-07-05 10:53:00,
2015-07-05 06:03:00,64.0,62.0,-100.00,South,180,7.0,10.0,91,-99.99,,,-99.99,,2015-07-05 11:03:00,
2015-07-05 06:13:00,64.0,62.0,-100.00,South,175,6.0,9.0,91,-99.99,,,-99.99,,2015-07-05 11:13:00,
2015-07-05 06:23:00,64.0,62.0,-100.00,South,185,6.0,10.0,91,-99.99,,,-99.99,,2015-07-05 11:23:00,
2015-07-05 06:33:00,65.0,62.0,-100.00,South,185,6.0,10.0,91,-99.99,,,-99.99,,2015-07-05 11:33:00,
2015-07-05 06:43:00,65.0,62.0,-100.00,South,175,7.0,10.0,91,-99.99,,,-99.99,,2015-07-05 11:43:00,
2015-07-05 06:53:00,65.0,63.0,-100.00,South,170,6.0,11.0,91,-99.99,,,-99.99,,2015-07-05 11:53:00,
2015-07-05 07:03:00,66.0,63.0,-100.00,SSW,195,6.0,12.0,91,-99.99,,,-99.99,,2015-07-05 12:03:00,
2015-07-05 07:13:00,66.0,64.0,-100.00,South,190,6.0,11.0,91,-99.99,,,-99.99,,2015-07-05 12:13:00,
2015-07-05 07:23:00,67.0,64.0,-100.00,South,175,5.0,9.0,90,-99.99,,,-99.99,,2015-07-05 12:23:00,
2015-07-05 07:33:00,67.0,64.0,-100.00,SSE,165,4.0,9.0,89,-99.99,,,-99.99,,2015-07-05 12:33:00,
2015-07-05 07:44:00,68.0,64.0,-100.00,SSE,165,5.0,9.0,88,-99.99,,,-99.99,,2015-07-05 12:44:00,
2015-07-05 07:54:00,68.0,64.0,-100.00,South,180,6.0,9.0,87,-99.99,,,-99.99,,2015-07-05 12:54:00,
2015-07-05 08:03:00,69.0,65.0,-100.00,SSE,160,4.0,9.0,87,-99.99,,,-99.99,,2015-07-05 13:03:00,
2015-07-05 08:13:00,70.0,65.0,-100.00,South,185,6.0,11.0,83,-99.99,,,-99.99,,2015-07-05 13:13:00,
2015-07-05 08:23:00,71.0,65.0,-100.00,South,180,6.0,12.0,82,-99.99,,,-99.99,,2015-07-05 13:23:00,
2015-07-05 08:43:00,71.0,65.0,-100.00,South,175,8.0,12.0,80,-99.99,,,-99.99,,2015-07-05 13:43:00,
2015-07-05 09:03:00,73.0,65.0,-100.00,South,170,7.0,14.0,77,-99.99,,,-99.99,,2015-07-05 14:03:00,
2015-07-05 09:13:00,74.0,65.0,-100.00,SSW,195,10.0,14.0,73,-99.99,,,-99.99,,2015-07-05 14:13:00,
2015-07-05 09:23:00,74.0,65.0,-100.00,SSW,195,9.0,16.0,72,-99.99,,,-99.99,,2015-07-05 14:23:00,
2015-07-05 09:34:00,75.0,65.0,-100.00,South,185,9.0,13.0,72,-99.99,,,-99.99,,2015-07-05 14:34:00,
2015-07-05 09:43:00,75.0,65.0,-100.00,South,170,7.0,13.0,71,-99.99,,,-99.99,,2015-07-05 14:43:00,
2015-07-05 09:53:00,76.0,66.0,-100.00,SSW,195,10.0,13.0,71,-99.99,,,-99.99,,2015-07-05 14:53:00,
2015-07-05 10:03:00,76.0,66.0,-100.00,South,185,9.0,14.0,69,-99.99,,,-99.99,,2015-07-05 15:03:00,
2015-07-05 10:13:00,77.0,66.0,-100.00,SSW,195,9.0,16.0,68,-99.99,,,-99.99,,2015-07-05 15:13:00,
2015-07-05 10:23:00,78.0,67.0,-100.00,SSW,200,9.0,15.0,68,-99.99,,,-99.99,,2015-07-05 15:23:00,
2015-07-05 10:33:00,77.0,65.0,-100.00,SSW,195,12.0,17.0,66,-99.99,,,-99.99,,2015-07-05 15:33:00,
2015-07-05 10:43:00,78.0,65.0,-100.00,South,190,11.0,16.0,66,-99.99,,,-99.99,,2015-07-05 15:43:00,
2015-07-05 10:53:00,78.0,66.0,-100.00,SSW,200,9.0,13.0,67,-99.99,,,-99.99,,2015-07-05 15:53:00,
2015-07-05 11:03:00,79.0,66.0,-100.00,SSW,195,7.0,13.0,65,-99.99,,,-99.99,,2015-07-05 16:03:00,
2015-07-05 11:13:00,80.0,67.0,-100.00,SSE,165,5.0,12.0,64,-99.99,,,-99.99,,2015-07-05 16:13:00,
2015-07-05 11:24:00,80.0,67.0,-100.00,South,185,7.0,12.0,64,-99.99,,,-99.99,,2015-07-05 16:24:00,
2015-07-05 11:34:00,80.0,67.0,-100.00,SSW,200,9.0,13.0,64,-99.99,,,-99.99,,2015-07-05 16:34:00,
2015-07-05 11:44:00,80.0,67.0,-100.00,South,185,7.0,13.0,64,-99.99,,,-99.99,,2015-07-05 16:44:00,
2015-07-05 11:53:00,80.0,67.0,-100.00,South,180,9.0,12.0,64,-99.99,,,-99.99,,2015-07-05 16:53:00,
2015-07-05 12:13:00,80.0,67.0,-100.00,SSW,195,9.0,13.0,65,-99.99,,,-99.99,,2015-07-05 17:13:00,
2015-07-05 12:23:00,82.0,68.0,-100.00,SSW,195,10.0,13.0,63,-99.99,,,-99.99,,2015-07-05 17:23:00,
2015-07-05 12:34:00,83.0,68.0,-100.00,SSW,205,9.0,14.0,61,-99.99,,,-99.99,,2015-07-05 17:34:00,
2015-07-05 12:44:00,83.0,68.0,-100.00,SSW,200,10.0,16.0,61,-99.99,,,-99.99,,2015-07-05 17:44:00,
2015-07-05 12:53:00,84.0,68.0,-100.00,SSW,195,6.0,11.0,59,-99.99,,,-99.99,,2015-07-05 17:53:00,